Flag for American Samoa Weather past 2 weeks in Pago Pago, American Samoa

Now
79 °F

Mostly cloudy.


Feels Like: 83 °F
Forecast: 78 / 85 °F
Wind: 24 mph from East

Location: Pago Pago / Int. Airp.

Current Time: May 21, 2015 at 10:05:04 PM

Latest Report: May 21, 2015 at 8:55 PM


Visibility: 9 mi

Pressure: 29.91 "Hg

Humidity: 92%

Dew point: 76 °F

Location of Pago PagoLocation

Historic Weather in Pago Pago — Graph

°F

Pago Pago temperature yesterday

Maximum temperature yesterday: 82 °F (at 1:50 PM)
Minimum temperature yesterday: 78 °F (at 6:51 AM)
Average temperature yesterday: 81 °F

Past Weeks' High & Low Weather Summary

 TemperatureHumidityPressure
High88 °F (May 11, 1:50 PM)97% (May 6, 11:54 PM)29.96 "Hg (May 6, 11:54 PM)
Low76 °F (May 17, 6:52 AM)65% (May 18, 11:52 AM)29.72 "Hg (May 7, 3:53 PM)
Average81 °F84%29.83 "Hg
* Reported May 6 8:50 PM — May 21 8:55 PM, Pago Pago, Weather by CustomWeather, © 2015

Note: Actual official high and low records may vary slightly from our data, if they occured in-between our weather recording intervals... More about our weather records

Advertising

Pago Pago weather history for previous 24 hours

 ConditionsComfort  
Time TempWeatherWind HumidityBarometerVisibility
8:55 PM
Thu, May 21
79 °FMostly cloudy.24 mph92%29.91 "Hg9 mi
7:52 PM79 °FPassing clouds.17 mph91%29.90 "Hg10 mi
6:52 PM79 °FSprinkles. Partly cloudy.20 mph93%29.88 "Hg10 mi
5:53 PM80 °FSprinkles. Partly sunny.17 mph89%29.88 "Hg12 mi
4:56 PM81 °FSprinkles. Broken clouds.16 mph87%29.87 "Hg12 mi
3:51 PM81 °FSprinkles. Broken clouds.17 mph85%29.85 "Hg12 mi
2:51 PM82 °FSprinkles. Mostly cloudy.16 mph84%29.88 "Hg10 mi
1:50 PM82 °FSprinkles. Mostly cloudy.14 mph86%29.88 "Hg10 mi
12:50 PM81 °FSprinkles. Mostly cloudy.35 mph89%29.91 "Hg10 mi
11:50 AM80 °FSprinkles. Mostly cloudy.12 mph92%29.93 "Hg10 mi
10:50 AM81 °FPartly sunny.15 mph89%29.94 "Hg12 mi
9:50 AM81 °FSprinkles. Partly sunny.15 mph92%29.95 "Hg10 mi
8:51 AM78 °FSprinkles. Cloudy.16 mph93%29.94 "Hg7 mi
7:51 AM79 °FSprinkles. Mostly cloudy.18 mph89%29.91 "Hg11 mi
6:54 AM81 °FSprinkles. Mostly cloudy.16 mph86%29.91 "Hg11 mi
5:51 AM81 °FOvercast.14 mph82%29.90 "Hg10 mi
4:54 AM81 °FOvercast.13 mph84%29.88 "Hg10 mi
3:51 AM81 °FOvercast.13 mph82%29.89 "Hg10 mi
2:50 AM81 °FPartly cloudy.12 mph80%29.90 "Hg10 mi
1:54 AM81 °FPartly cloudy.15 mph82%29.90 "Hg10 mi
12:50 AM81 °FPartly cloudy.12 mph80%29.91 "Hg10 mi
11:50 PM
Wed, May 20
81 °FPassing clouds.15 mph80%29.91 "Hg10 mi
10:53 PM81 °FPassing clouds.16 mph80%29.93 "Hg10 mi
Weather by CustomWeather, © 2015

See weather overviewHow to use our weather pages